Location: Ab? ar R?sh Ba?r?
(24.1861°N, 32.8847°E)
Time: 00:33:01
(UTC+00:00)

Cosmos 2237 - Pass Details

Date: 24 October 2021
Orbit: 845 x 856 km, 70.8° (Epoch: 05 December)

Event Time Altitude Azimuth Distance (km) Brightness Sun altitude
Rises 15:35:10 0° 193° (SSW) 3,397 7.7 -5.4°
Reaches altitude 10° 15:37:36 10° 191° (SSW) 2,466 6.9 -6.0°
Maximum altitude 15:43:15 75° 107° (ESE) 880 4.2 -7.3°
Drops below altitude 10° 15:48:57 10° 22° (NNE) 2,482 6.3 -8.5°
Sets 15:51:25 0° 21° (NNE) 3,422 7.1 -9.1°
